DW7628 Weather Reports


Display with metric or nautical units.
time (UTC)temp
F
wind
direction
speed
MPH
gust
MPH
rain 1hr
in
rain 24hr
in
rain mn
in
humidity
%
barometer
mb
20260509074805 67 146 0.0 0.0 0.00 0.00 0.00 64 1013.5
20260509074304 67 117 0.0 0.0 0.00 0.00 0.00 65 1013.4
20260509073805 66 45 0.0 0.0 0.00 0.00 0.00 68 1013.5
20260509073305 66 49 0.0 0.0 0.00 0.00 0.00 66 1013.4
20260509072306 65 199 0.0 0.0 0.00 0.00 0.00 67 1013.3
20260509071805 65 39 0.0 0.0 0.00 0.00 0.00 67 1013.2
20260509071305 65 46 0.0 0.0 0.00 0.00 0.00 69 1013.3
20260509070804 64 0 0.0 0.0 0.00 0.00 0.00 67 1013.4
20260509070305 64 60 0.0 0.0 0.00 0.00 0.00 69 1013.5
20260509065804 65 94 0.0 0.0 0.00 0.00 0.00 69 1013.5
20260509065306 64 67 0.0 0.0 0.00 0.00 0.00 69 1013.5
20260509064805 64 67 0.0 0.0 0.00 0.00 0.00 69 1013.4
20260509064304 64 157 0.0 0.0 0.00 0.00 0.00 71 1013.5
20260509063804 63 169 0.0 0.0 0.00 0.00 0.00 73 1013.3
20260509063305 62 212 0.0 0.0 0.00 0.00 0.00 75 1013.3
20260509062306 61 177 0.0 0.0 0.00 0.00 0.00 76 1013.1
20260509061305 60 63 0.0 0.0 0.00 0.00 0.00 79 1013.3
20260509060804 59 32 0.0 0.0 0.00 0.00 0.00 79 1013.4
20260509060305 59 150 0.0 0.0 0.00 0.00 0.00 81 1013.4
20260509055804 58 59 0.0 0.0 0.00 0.00 0.00 82 1013.4
20260509055306 58 38 0.0 0.0 0.00 0.00 0.00 83 1013.3
20260509054804 57 268 0.0 0.0 0.00 0.00 0.00 86 1013.3
20260509054304 57 257 0.0 0.0 0.00 0.00 0.00 85 1013.3
20260509053304 57 82 0.0 0.0 0.00 0.00 0.00 85 1013.3
20260509052804 57 84 0.0 0.0 0.00 0.00 0.00 86 1013.2
20260509052307 57 170 0.0 0.0 0.00 0.00 0.00 86 1013.2
20260509051304 56 68 0.0 0.0 0.00 0.00 0.00 87 1013.0
20260509050805 56 39 0.0 0.0 0.00 0.00 0.00 88 1013.0
20260509045804 56 70 0.0 0.0 0.00 0.00 0.00 88 1013.0
20260509045306 56 235 0.0 0.0 0.00 0.00 0.00 88 1012.9
20260509044805 56 234 0.0 0.0 0.00 0.00 0.00 88 1013.0
20260509044304 55 234 0.0 0.0 0.00 0.00 0.00 89 1012.9
20260509043804 55 235 0.0 0.0 0.00 0.00 0.00 89 1012.9
20260509042804 55 43 0.0 0.0 0.00 0.00 0.00 89 1012.8
20260509042307 55 229 0.0 0.0 0.00 0.00 0.00 89 1012.8
20260509041804 55 241 0.0 0.0 0.00 0.00 0.00 90 1012.8
20260509041305 55 230 0.0 0.0 0.00 0.00 0.00 90 1012.7
20260509040804 55 227 0.0 0.0 0.00 0.00 0.00 90 1012.7
20260509040304 55 232 0.0 0.0 0.00 0.00 0.00 90 1012.7
20260509035804 55 234 0.0 0.0 0.00 0.00 0.00 90 1012.8
20260509035306 55 235 0.0 0.0 0.00 0.00 0.00 90 1012.8
20260509034304 55 162 0.0 0.0 0.00 0.00 0.00 90 1012.7
20260509033804 55 48 0.0 0.0 0.00 0.00 0.00 89 1012.7
20260509033304 55 85 0.0 0.0 0.00 0.00 0.00 89 1012.7
20260509032804 55 351 0.0 0.0 0.00 0.00 0.00 89 1012.6
20260509032306 55 42 0.0 0.0 0.00 0.00 0.00 89 1012.5
20260509031804 55 87 0.0 0.0 0.00 0.00 0.00 89 1012.5
20260509030804 56 59 0.0 0.0 0.00 0.00 0.00 89 1012.5
20260509030304 56 117 0.0 0.0 0.00 0.00 0.00 89 1012.5
20260509025804 55 94 0.0 0.0 0.00 0.00 0.00 89 1012.5
20260509025306 55 164 0.0 0.0 0.00 0.00 0.00 89 1012.5
20260509024804 55 229 0.0 0.0 0.00 0.00 0.00 90 1012.5
20260509024305 55 231 0.0 0.0 0.00 0.00 0.00 89 1012.5
20260509023804 55 226 0.0 0.0 0.00 0.00 0.00 90 1012.5
20260509023304 55 226 0.0 0.0 0.00 0.00 0.00 90 1012.5
20260509022805 55 224 0.0 0.0 0.00 0.00 0.00 89 1012.4
20260509022306 55 224 0.0 0.0 0.00 0.00 0.00 89 1012.4
20260509021804 56 224 0.0 0.0 0.00 0.00 0.00 89 1012.5
20260509021304 56 224 0.0 0.0 0.00 0.00 0.00 89 1012.5
20260509020804 56 224 0.0 0.0 0.00 0.00 0.00 89 1012.4
20260509015306 56 224 0.0 0.0 0.00 0.00 0.00 89 1012.4
20260509014803 56 224 0.0 0.0 0.00 0.00 0.00 89 1012.4
20260509014304 56 243 0.0 0.0 0.00 0.00 0.00 88 1012.3
20260509013804 56 58 0.0 0.0 0.00 0.00 0.00 88 1012.3
20260509012804 56 233 0.0 0.0 0.00 0.00 0.00 88 1012.2
20260509012307 56 232 0.0 0.0 0.00 0.00 0.00 88 1012.2
20260509011804 56 277 0.0 0.0 0.00 0.00 0.00 88 1012.2
20260509011304 56 278 0.0 0.0 0.00 0.00 0.00 88 1012.2
20260509010804 57 278 0.0 0.0 0.00 0.00 0.00 88 1012.3
20260509010304 56 15 0.0 0.0 0.00 0.00 0.00 89 1012.2
20260509005804 57 69 0.0 0.0 0.00 0.00 0.00 89 1012.3
20260509005306 57 69 0.0 0.0 0.00 0.00 0.00 89 1012.2
20260509004804 57 89 0.0 0.0 0.00 0.00 0.00 89 1012.3
20260509004304 57 94 0.0 0.0 0.00 0.00 0.00 89 1012.4
20260509003804 57 94 0.0 0.0 0.00 0.00 0.00 89 1012.3
20260509003304 57 149 0.0 0.0 0.00 0.00 0.00 89 1012.4
20260509002807 57 168 0.0 0.0 0.00 0.00 0.00 89 1012.4
20260509002307 57 161 0.0 0.0 0.00 0.00 0.00 89 1012.4
20260509001806 57 113 0.0 0.0 0.00 0.00 0.00 89 1012.4
20260509001307 57 62 0.0 0.0 0.00 0.00 0.00 88 1012.4
20260509000807 57 48 0.0 0.0 0.00 0.00 0.00 88 1012.4
20260509000306 57 46 0.0 0.0 0.00 0.00 0.00 88 1012.4
20260508235806 57 120 0.0 0.0 0.00 0.00 0.00 88 1012.3
20260508235306 57 49 0.0 0.0 0.00 0.00 0.00 88 1012.3
20260508234306 57 44 0.0 0.0 0.00 0.00 0.00 88 1012.4
20260508233806 57 40 0.0 0.0 0.00 0.00 0.00 88 1012.4
20260508233306 57 86 0.0 0.0 0.00 0.00 0.00 88 1012.4
20260508232307 58 99 0.0 0.0 0.00 0.00 0.00 87 1012.4
20260508231806 58 54 0.0 0.0 0.00 0.00 0.00 87 1012.5
20260508231306 58 83 0.0 0.0 0.00 0.00 0.00 87 1012.4
20260508230806 58 58 0.0 0.0 0.00 0.00 0.00 86 1012.4
20260508230306 58 86 0.0 0.0 0.00 0.00 0.00 86 1012.5
20260508225307 58 198 0.0 0.0 0.00 0.00 0.00 86 1012.4
20260508224306 58 98 0.0 0.0 0.00 0.00 0.00 86 1012.5
20260508223306 58 77 0.0 0.0 0.00 0.00 0.00 87 1012.5
20260508222806 58 117 0.0 0.0 0.00 0.00 0.00 87 1012.4
20260508221806 58 161 0.0 0.0 0.00 0.00 0.00 87 1012.3
20260508221306 58 117 0.0 0.0 0.00 0.00 0.00 87 1012.4
20260508220832 58 70 0.0 0.0 0.00 0.00 0.00 87 1012.5
20260508220306 58 95 0.0 0.0 0.00 0.00 0.00 86 1012.5
20260508215806 58 54 0.0 0.0 0.00 0.00 0.00 86 1012.4
20260508215306 59 32 0.0 0.0 0.00 0.00 0.00 86 1012.4
20260508214806 59 9 0.0 0.0 0.00 0.00 0.00 85 1012.5
20260508214307 59 48 0.0 0.0 0.00 0.00 0.00 85 1012.4
20260508213306 60 126 0.0 0.0 0.00 0.00 0.00 84 1012.3
20260508212806 60 43 0.0 0.0 0.00 0.00 0.00 84 1012.2
20260508212306 60 130 0.0 0.0 0.00 0.00 0.00 83 1012.2
20260508211807 60 54 0.0 0.0 0.00 0.00 0.00 83 1012.1
20260508210806 60 222 0.0 0.0 0.00 0.00 0.00 83 1012.0
20260508210306 61 82 0.0 0.0 0.00 0.00 0.00 82 1012.0
20260508205806 61 57 0.0 0.0 0.00 0.00 0.00 82 1012.0
20260508205306 61 42 0.0 0.0 0.00 0.00 0.00 82 1012.1
20260508204806 61 58 0.0 0.0 0.00 0.00 0.00 81 1012.0
20260508204306 61 34 0.0 0.0 0.00 0.00 0.00 81 1011.9
20260508203806 61 35 0.0 0.0 0.00 0.00 0.00 80 1012.0
20260508203305 61 52 0.0 0.0 0.00 0.00 0.00 80 1011.9
20260508202806 62 23 0.0 0.0 0.00 0.00 0.00 80 1011.9
20260508202307 62 27 0.0 0.0 0.00 0.00 0.00 79 1011.9
20260508201306 62 18 0.0 0.0 0.00 0.00 0.00 79 1012.0
20260508200306 63 38 0.0 0.0 0.00 0.00 0.00 78 1011.9
20260508195806 63 98 0.0 0.0 0.00 0.00 0.00 78 1011.8
20260508195306 63 42 0.0 0.0 0.00 0.00 0.00 77 1011.7
20260508194806 63 28 0.0 0.0 0.00 0.00 0.00 77 1011.6
20260508194305 64 48 0.0 0.0 0.00 0.00 0.00 76 1011.6
20260508193806 64 37 0.0 0.0 0.00 0.00 0.00 76 1011.5
20260508193306 64 28 0.0 0.0 0.00 0.00 0.00 75 1011.5
20260508192805 64 32 0.0 0.0 0.00 0.00 0.00 75 1011.2
20260508192306 65 61 0.0 0.0 0.00 0.00 0.00 74 1011.2
20260508191806 65 39 0.0 0.0 0.00 0.00 0.00 74 1011.0
20260508191306 65 34 0.0 0.0 0.00 0.00 0.00 73 1011.0
20260508190806 65 56 0.0 0.0 0.00 0.00 0.00 73 1011.0
20260508190306 65 36 0.0 0.0 0.00 0.00 0.00 72 1010.8
20260508185806 65 42 0.0 0.0 0.00 0.00 0.00 72 1010.9
20260508185306 65 22 0.0 0.0 0.00 0.00 0.00 71 1010.8
20260508184806 65 95 0.0 0.0 0.00 0.00 0.00 71 1010.7
20260508184306 66 270 0.0 0.0 0.00 0.00 0.00 71 1010.6
20260508183806 66 11 0.0 0.0 0.00 0.00 0.00 71 1010.5
20260508183306 66 287 0.0 0.0 0.00 0.00 0.00 70 1010.5
20260508182805 66 151 0.0 0.0 0.00 0.00 0.00 69 1010.4
20260508181805 67 32 0.0 0.0 0.00 0.00 0.00 67 1010.4
20260508181306 68 87 0.0 0.0 0.00 0.00 0.00 66 1010.4
20260508180805 68 7 0.0 0.0 0.00 0.00 0.00 65 1010.4
20260508180306 68 94 0.0 0.0 0.00 0.00 0.00 64 1010.4
20260508175805 68 49 0.0 0.0 0.00 0.00 0.00 63 1010.4
20260508175306 69 206 0.0 0.0 0.00 0.00 0.00 63 1010.4
20260508174805 69 298 0.0 0.0 0.00 0.00 0.00 62 1010.3
20260508174306 69 10 0.0 0.0 0.00 0.00 0.00 60 1010.2
20260508173806 69 275 0.0 0.0 0.00 0.00 0.00 59 1010.1
20260508173307 70 239 0.0 0.0 0.00 0.00 0.00 58 1010.1
20260508172806 70 296 0.0 0.0 0.00 0.00 0.00 57 1010.0
20260508171805 70 214 0.0 0.0 0.00 0.00 0.00 54 1010.0
20260508171305 71 271 0.0 0.0 0.00 0.00 0.00 53 1010.0
20260508170806 71 185 0.0 0.0 0.00 0.00 0.00 52 1010.0
20260508165806 71 71 0.0 0.0 0.00 0.00 0.00 50 1009.9
20260508165307 72 264 0.0 0.0 0.00 0.00 0.00 49 1009.9
20260508164806 72 231 0.0 0.0 0.00 0.00 0.00 49 1009.8
20260508164306 72 286 0.0 0.0 0.00 0.00 0.00 48 1009.7
20260508163806 73 228 0.0 0.0 0.00 0.00 0.00 47 1009.7
20260508163305 73 21 0.0 0.0 0.00 0.00 0.00 45 1009.6
20260508162806 74 255 0.0 0.0 0.00 0.00 0.00 44 1009.6
20260508162307 74 278 0.0 0.0 0.00 0.00 0.00 42 1009.5
20260508160805 75 223 0.0 0.0 0.00 0.00 0.00 43 1009.5
20260508155306 75 235 0.0 0.0 0.00 0.00 0.00 42 1009.6
20260508154805 75 266 0.0 0.0 0.00 0.00 0.00 42 1009.7
20260508153805 76 350 0.0 0.0 0.00 0.00 0.00 40 1009.7
20260508153306 75 180 0.0 0.0 0.00 0.00 0.00 42 1009.7
20260508152306 75 97 0.0 0.0 0.00 0.00 0.00 41 1009.7
20260508151805 75 325 0.0 0.0 0.00 0.00 0.00 42 1009.6
20260508151306 76 271 0.0 0.0 0.00 0.00 0.00 44 1009.6
20260508150305 75 267 0.0 0.0 0.00 0.00 0.00 45 1009.6
20260508145806 75 270 0.0 0.0 0.00 0.00 0.00 45 1009.6
20260508145307 76 306 0.0 0.0 0.00 0.00 0.00 44 1009.6
20260508144806 76 288 0.0 0.0 0.00 0.00 0.00 43 1009.5
20260508144305 76 216 0.0 0.0 0.00 0.00 0.00 44 1009.5
20260508143806 76 264 0.0 0.0 0.00 0.00 0.00 44 1009.5
20260508143305 76 304 0.0 0.0 0.00 0.00 0.00 42 1009.5
20260508142806 76 257 0.0 0.0 0.00 0.00 0.00 43 1009.5
20260508142307 76 292 0.0 0.0 0.00 0.00 0.00 42 1009.5
20260508141805 77 66 0.0 0.0 0.00 0.00 0.00 43 1009.5
20260508141305 77 298 0.0 0.0 0.00 0.00 0.00 44 1009.6
20260508140805 76 308 0.0 0.0 0.00 0.00 0.00 45 1009.5
20260508140305 76 203 0.0 0.0 0.00 0.00 0.00 46 1009.6
20260508135805 76 255 0.0 0.0 0.00 0.00 0.00 47 1009.6
20260508135306 77 251 0.0 0.0 0.00 0.00 0.00 45 1009.7
20260508134805 77 220 0.0 0.0 0.00 0.00 0.00 46 1009.7
20260508133806 76 229 0.0 0.0 0.00 0.00 0.00 46 1009.7
20260508132805 77 189 0.0 0.0 0.00 0.00 0.00 49 1009.7
20260508132306 76 259 0.0 0.0 0.00 0.00 0.00 49 1009.7
20260508131805 77 202 0.0 0.0 0.00 0.00 0.00 47 1009.6
20260508131305 76 190 0.0 0.0 0.00 0.00 0.00 47 1009.7
20260508130305 77 208 0.0 0.0 0.00 0.00 0.00 46 1009.8
20260508125806 77 68 0.0 0.0 0.00 0.00 0.00 46 1009.7
20260508125306 77 15 0.0 0.0 0.00 0.00 0.00 47 1009.8
20260508124805 77 43 0.0 0.0 0.00 0.00 0.00 46 1009.7
20260508124305 76 206 0.0 0.0 0.00 0.00 0.00 49 1009.8
20260508123805 77 260 0.0 0.0 0.00 0.00 0.00 49 1009.7
20260508123305 76 214 0.0 0.0 0.00 0.00 0.00 49 1009.8
20260508122805 76 157 0.0 0.0 0.00 0.00 0.00 51 1009.8
20260508121806 76 278 0.0 0.0 0.00 0.00 0.00 48 1009.8
20260508121305 76 151 0.0 0.0 0.00 0.00 0.00 47 1009.9
20260508120805 76 182 0.0 0.0 0.00 0.00 0.00 51 1009.8
20260508120305 76 220 0.0 0.0 0.00 0.00 0.00 51 1009.9
20260508115805 76 216 0.0 0.0 0.00 0.00 0.00 51 1009.9
20260508115306 76 254 0.0 0.0 0.00 0.00 0.00 51 1009.9
20260508114805 75 235 0.0 0.0 0.00 0.00 0.00 51 1009.9
20260508113805 75 252 0.0 0.0 0.00 0.00 0.00 51 1009.8
20260508113306 75 202 0.0 0.0 0.00 0.00 0.00 51 1009.8
20260508112805 76 206 0.0 0.0 0.00 0.00 0.00 51 1009.9
20260508112307 75 248 0.0 0.0 0.00 0.00 0.00 52 1009.9
20260508111806 74 282 0.0 0.0 0.00 0.00 0.00 53 1009.9
20260508111305 75 217 0.0 0.0 0.00 0.00 0.00 52 1009.8
20260508110305 75 302 0.0 0.0 0.00 0.00 0.00 54 1009.9
20260508105805 74 301 0.0 0.0 0.00 0.00 0.00 54 1009.9
20260508105306 74 269 0.0 0.0 0.00 0.00 0.00 54 1009.9
20260508104805 74 27 0.0 0.0 0.00 0.00 0.00 54 1009.9
20260508104305 74 299 0.0 0.0 0.00 0.00 0.00 55 1010.0
20260508103805 74 33 0.0 0.0 0.00 0.00 0.00 54 1009.9
20260508103306 74 164 0.0 0.0 0.00 0.00 0.00 55 1009.9
20260508102804 74 188 0.0 0.0 0.00 0.00 0.00 55 1010.1
20260508101804 73 189 0.0 0.0 0.00 0.00 0.00 57 1010.1
20260508101305 73 79 0.0 0.0 0.00 0.00 0.00 56 1010.1
20260508100804 72 229 0.0 0.0 0.00 0.00 0.00 57 1010.1
20260508100305 73 305 0.0 0.0 0.00 0.00 0.00 56 1010.1
20260508095804 72 334 0.0 0.0 0.00 0.00 0.00 57 1010.1
20260508094805 71 348 0.0 0.0 0.00 0.00 0.00 58 1010.0
20260508094304 72 249 0.0 0.0 0.00 0.00 0.00 58 1010.1
20260508093805 72 287 0.0 0.0 0.00 0.00 0.00 58 1010.1
20260508093305 72 313 0.0 0.0 0.00 0.00 0.00 59 1010.1
20260508092805 72 226 0.0 0.0 0.00 0.00 0.00 58 1010.0
20260508092312 72 18 0.0 0.0 0.00 0.00 0.00 58 1010.0
20260508091805 72 78 0.0 0.0 0.00 0.00 0.00 59 1009.9
20260508091305 72 9 0.0 0.0 0.00 0.00 0.00 58 1009.9
20260508090304 71 271 0.0 0.0 0.00 0.00 0.00 57 1010.0
20260508085805 71 267 0.0 0.0 0.00 0.00 0.00 59 1010.0
20260508085307 70 167 0.0 0.0 0.00 0.00 0.00 60 1010.0
20260508084804 70 285 0.0 0.0 0.00 0.00 0.00 60 1009.9
20260508084305 71 33 0.0 0.0 0.00 0.00 0.00 58 1009.9
20260508083804 70 148 0.0 0.0 0.00 0.00 0.00 62 1009.8
20260508083305 69 39 0.0 0.0 0.00 0.00 0.00 63 1009.8
20260508082306 68 320 0.0 0.0 0.00 0.00 0.00 64 1009.7
20260508081304 69 54 0.0 0.0 0.00 0.00 0.00 65 1009.7
20260508080805 69 6 0.0 0.0 0.00 0.00 0.00 64 1009.7
20260508080304 68 152 0.0 0.0 0.00 0.00 0.00 66 1009.8
20260508075805 67 178 0.0 0.0 0.00 0.00 0.00 71 1009.8
20260508075308 67 35 0.0 0.0 0.00 0.00 0.00 70 1009.9